Miscellaneous Local Product
Issued by NWS North Platte, NE

Home | Current Version | Previous Version | Text Only | Print | Product List | Glossary On
Versions: 1 2 3 4 5 6 7 8 9 10 11 12 13 14 15 16 17 18 19 20 21 22 23 24 25 26 27 28 29 30 31 32 33 34 35 36 37 38 39 40 41 42 43 44 45 46 47 48 49 50
000
AXUS43 KLBF 051910
MISLBF


WESTERN AND NORTH CENTRAL NEBRASKA HOURLY WEATHER ROUNDUP
NATIONAL WEATHER SERVICE NORTH PLATTE NE
200 PM CDT TUE MAY 05 2015

***STATIONS NOT REPORTING VARIABLES SUCH AS SKY/WEATHER OR
PRESSURE ARE PROVIDED BY THE NEBRASKA DEPARTMENT OF
ROADS...RAWS...AND APRS NETWORKS...AND ARE NOT UNDER
NATIONAL WEATHER SERVICE QUALITY CONTROL***

...OBSERVATIONS IN AND NEAR THE EASTERN PANHANDLE OF NEBRASKA...

CITY           SKY/WX    TMP DP  RH WIND       PRES   REMARKS
PINE RIDGE     CLOUDY    61  49  64 S10       29.96F
CHADRON        CLOUDY    63  51  65 E5        29.93F
ALLIANCE       CLOUDY    57  50  77 SE15      29.96F
SIDNEY         CLOUDY    52  49  89 SE13      29.97F
WHITECLAY        N/A     60  48  64 S17         N/A
CRESCENT LAKE    N/A     54  51  89 SE8         N/A
BIG SPRINGS      N/A     55  53  94 E8          N/A
$$

...OBSERVATIONS IN NORTH CENTRAL NEBRASKA...

CITY           SKY/WX    TMP DP  RH WIND       PRES   REMARKS
VALENTINE      CLOUDY    58  55  90 SE9       30.00F
THEDFORD       CLOUDY    60  57  89 SE8       30.00F
AINSWORTH      CLOUDY    61  55  82 SE12      30.01F
O`NEILL        CLOUDY    64  60  87 SE5       30.02F
ORD            CLOUDY    63  57  81 SE13      30.01F
BROKEN BOW     CLOUDY    62  58  86 SE15G25   30.00F FOG
BROWNLEE         N/A     60  58  92 SE10        N/A
VALENTINE NWR    N/A     56  56  99 SE9         N/A
SPRINGVIEW       N/A     57  55  92 CALM        N/A
HALSEY           N/A     57  57 100 SE6         N/A
BREWSTER         N/A     62  61  94 E3          N/A
ROSE             N/A     64  64  99 E6          N/A
NEWPORT          N/A     60  59  94 SE8         N/A
SARGENT          N/A     62  59  89 SE5G12      N/A
COMSTOCK         N/A     68  67  99 E10         N/A
EWING            N/A     70  61  72 S7          N/A
$$

...OBSERVATIONS IN SOUTHWEST NEBRASKA AND FAR NORTHEAST COLORADO...

CITY           SKY/WX    TMP DP  RH WIND       PRES   REMARKS
WRAY           LGT RAIN N/A N/A N/A E8        29.95F
IMPERIAL       LGT RAIN  56  55  97 E12       29.96F FOG
OGALLALA       DRIZZLE   55  55  99 E8        29.97F
NORTH PLATTE   LGT RAIN  58  57  97 E8        29.98F
MCCOOK         CLOUDY    63  60  90 S12       29.94F FOG
LEXINGTON      CLOUDY    67  63  86 SE13      29.97F
PAXTON           N/A     56  55  96 E6          N/A
SUTHERLAND       N/A     52  50  93 E8          N/A
GOTHENBURG       N/A     63  58  83 E10         N/A
CALLAWAY         N/A     60  60  99 SE13        N/A
$$

...NORTH PLATTE AREA...

CITY           SKY/WX    TMP DP  RH WIND       PRES   REMARKS
AIRPORT        LGT RAIN  58  57  97 E8        29.98F
DOWNTOWN         N/A     57  55  95 CALM        N/A
$$

...SOME WEATHER OBSERVATIONS FROM AROUND THE REGION...

CITY           SKY/WX    TMP DP  RH WIND       PRES   REMARKS
DENVER         LGT RAIN  54  50  86 E15       29.91F FOG
LARAMIE        MOSUNNY   55  42  61 SE26G35   29.90F
CHEYENNE       LGT RAIN  47  46  97 S12       29.95F VSB 1/2
SCOTTSBLUFF    CLOUDY    59  49  69 SE15G22   29.94F
RAPID CITY     CLOUDY    61  49  64 S20G25    29.94F
PIERRE         CLOUDY    69  46  43 SE20      29.97F
WINNER         CLOUDY    61  50  67 SE15      30.01F
SIOUX FALLS    CLOUDY    70  57  63 SE17G23   30.05F
OMAHA          CLOUDY    74  62  66 SE15      30.05F
GRAND ISLAND   CLOUDY    72  59  63 SE15G22   30.01F
KANSAS CITY    CLOUDY    78  57  48 S17       30.08F
WICHITA        PTSUNNY   75  51  43 SE23G32   29.99F
HAYS           CLOUDY    66  54  63 SE21G26   29.96F
LIBERAL        CLOUDY    61  55  82 SE23      29.87F
GOODLAND       LGT RAIN  59  57  93 SE18G26   29.91F
$$



USA.gov is the U.S. government's official web portal to all federal, state and local government web resources and services.